Regional Weather Roundup
Issued by NWS

Home | Current Version | Previous Version | Graphics & Text | Print | Product List | Glossary On
Versions: 1 2 3 4 5 6 7 8 9 10 11 12 13 14 15 16 17 18 19 20 21 22 23 24 25 26 27 28 29 30 31 32 33 34 35 36 37 38 39 40 41 42 43 44 45 46 47 48 49 50
000
ASUS45 KSLC 281910
RWRUT

UTAH REGIONAL WEATHER ROUNDUP
NATIONAL WEATHER SERVICE SALT LAKE CITY UT
100 PM MDT THU AUG 28 2014

UTZ001>011-023>025-282000-

NORTHERN UTAH

CITY           SKY/WX    TMP DP  RH WIND       PRES   REMARKS
HILL AFB       SUNNY     75  48  37 W3        30.24F
LOGAN          SUNNY     76  50  40 CALM      30.21F
OGDEN          SUNNY     78  49  35 W6        30.21F
PROVO AIRPORT  MOSUNNY   73  52  46 VRB5      30.25F
SALT LAKE CITY MOSUNNY   78  46  32 SE3       30.20F
VERNAL         MOSUNNY   65  56  72 VRB3      30.26F
WENDOVER       SUNNY     79  46  31 E7        30.20F
HEBER CITY     SUNNY     64  50  59 CALM      30.29F
WEST JORDAN    SUNNY     79  54  41 CALM      30.24F

$$

UTZ012>022-026-027-282000-

SOUTHERN UTAH

CITY           SKY/WX    TMP DP  RH WIND       PRES   REMARKS
BRYCE CANYON   MOSUNNY   67  42  40 VRB3      30.40F
CEDAR CITY     SUNNY     77  35  21 VRB3      30.27F
MILFORD        SUNNY     80  40  23 CALM      30.23F
MOAB/CYNLANDS  SUNNY     78  46  32 CALM      30.19F
PRICE          SUNNY     75  42  30 VRB7      30.27F
ST GEORGE      CLEAR     84  48  28 NW3       30.12F

$$

REGIONAL REPORTS     COLORADO/ARIZONA

CITY           SKY/WX    TMP DP  RH WIND       PRES   REMARKS
CRAIG, CO      MOSUNNY   65  51  60 W7        30.29F
GRAND JUNCTION MOSUNNY   69  51  52 SW6       30.24F
RIFLE          MOSUNNY   64  52  64 SE5       30.27F
MONTROSE       PTSUNNY   66  48  52 N7        30.31F
CORTEZ         MOSUNNY   71  45  39 NW17G24   30.26F
PAGE, AZ       SUNNY     81  40  23 NW3       30.20F
GRAND CANYON   SUNNY     75  37  25 NW13      30.36S
KINGMAN        SUNNY     91  35  13 N6        30.13F
FLAGSTAFF      SUNNY     72  40  31 NE6       30.35F

$$

REGIONAL REPORTS    NEVADA/IDAHO/WYOMING

CITY           SKY/WX    TMP DP  RH WIND       PRES   REMARKS
LAS VEGAS, NV  SUNNY     94  37  13 SW3       30.01F
ELY            SUNNY     77  33  20 CALM      30.32F
ELKO           SUNNY     83  31  15 SW7       30.23F
POCATELLO, ID  SUNNY     82  46  28 W6        30.18F
BURLEY         SUNNY     82  46  28 CALM      30.14F
EVANSTON, WY   MOSUNNY   70  43  37 VRB3      30.35F
ROCK SPRINGS   SUNNY     68  45  43 W12       30.30F

$$


USA.gov is the U.S. government's official web portal to all federal, state and local government web resources and services.